Regional Weather Roundup
Issued by NWS

Home | Current Version | Previous Version | Graphics & Text | Print | Product List | Glossary On
Versions: 1 2 3 4 5 6 7 8 9 10 11 12 13 14 15 16 17 18 19 20 21 22 23 24 25 26 27 28 29 30 31 32 33 34 35 36 37 38 39 40 41 42 43 44 45 46 47 48 49 50
397
ASUS44 KJAN 271610
RWRMS

MISSISSIPPI HOURLY WEATHER ROUNDUP
NATIONAL WEATHER SERVICE JACKSON MS
1000 AM CST TUE JAN 27 2015

NOTE: "FAIR: INDICATES FEW OR NO CLOUDS BELOW 12,000 FEET WITH NO
SIGNIFICANT WEATHER AND/OR OBSTRUCTIONS TO VISIBILITY.

MSZ001>002-007>008-010>013-018>021-025>028-034>036-271700-
NORTHWEST MISSISSIPPI

CITY           SKY/WX    TMP DP  RH WIND       PRES   REMARKS
CLARKSDALE     FAIR      52  39  62 N16       30.14R
CLEVELAND      FAIR      54  42  64 N15       30.13R
GREENWOOD      SUNNY     53  39  59 NE7       30.13R
GREENVILLE     SUNNY     56  40  55 N10       30.13R
GRENADA        FAIR      52  37  58 N10G16    30.13R
OLIVE BRANCH   SUNNY     46  37  71 N12G18    30.12R
OXFORD         FAIR      48  36  61 NW8       30.13R
TUNICA         SUNNY     50  37  62 N15       30.15R
$$

MSZ003>006-009-014>017-022>024-029>033-037>039-271700-
NORTHEAST MISSISSIPPI

CITY           SKY/WX    TMP DP  RH WIND       PRES   REMARKS
COLUMBUS AFB   SUNNY     52  37  57 N15       30.09R
CORINTH        FAIR      48  36  61 N12       30.09R
GOLDN TRIANGLE SUNNY     54  39  58 NW10G16   30.08R
STARKVILLE     FAIR      54  37  54 NW8       30.09R
TUPELO         SUNNY     50  36  58 N9        30.09R
$$

MSZ040-058-271700-
CENTRAL MISSISSIPPI

CITY           SKY/WX    TMP DP  RH WIND       PRES   REMARKS
JACKSON INTL   SUNNY     59  37  44 N9        30.13R
JACKSON HAWKNS SUNNY     57  37  47 N6        30.13R
MERIDIAN KEY   SUNNY     55  38  52 N7        30.10R
MERIDIAN NAS   SUNNY     57  37  47 N12       30.10R
RAYMOND        FAIR      57  54  88 NW7       30.14R
VICKSBURG      SUNNY     56  41  57 CALM      30.15R
$$

MSZ059>079-271700-
SOUTH MISSISSIPPI

CITY           SKY/WX    TMP DP  RH WIND       PRES   REMARKS
BROOKHAVEN     FAIR      57  39  51 NW8       30.15R
HATTIESBURG    SUNNY     58  39  49 NW10      30.13R
MCCOMB           N/A     60  39  45 N9        30.14R
NATCHEZ        SUNNY     57  39  51 N3        30.16R
PINE BELT      SUNNY     59  37  44 N12G20    30.12R
$$

MSZ080>082-271700-
COASTAL MISSISSIPPI

CITY           SKY/WX    TMP DP  RH WIND       PRES   REMARKS
BAY ST LOUIS   SUNNY     55  37  50 NW7       30.14R
BILOXI         SUNNY     59  40  47 N9        30.12R
PASCAGOULA     SUNNY     60  38  43 N10G20    30.11R
GULFPORT       SUNNY     60  38  43 N12       30.12R
$$



USA.gov is the U.S. government's official web portal to all federal, state and local government web resources and services.